Time,TemperatureF,DewpointF,PressureIn,WindDirection,WindDirectionDegrees,WindSpeedMPH,WindSpeedGustMPH,Humidity,HourlyPrecipIn,Conditions,Clouds,dailyrainin,SoftwareType,DateUTC
2013-01-16 00:02:00,18.3,13.5,29.79,SSW,200,4.0,4.0,81,0.00,,---,0.00,VWS V14.01,2013-01-16 06:02:00,
2013-01-16 00:07:00,18.1,13.3,29.79,SE,140,1.0,6.0,81,0.00,,---,0.00,VWS V14.01,2013-01-16 06:07:00,
2013-01-16 00:12:00,18.1,13.5,29.79,South,169,2.0,6.0,82,0.00,,---,0.00,VWS V14.01,2013-01-16 06:12:00,
2013-01-16 00:17:00,18.1,13.5,29.78,SE,141,3.0,9.0,82,0.00,,---,0.00,VWS V14.01,2013-01-16 06:17:00,
2013-01-16 00:22:00,18.0,13.4,29.78,SSE,161,1.0,9.0,82,0.00,,---,0.00,VWS V14.01,2013-01-16 06:22:00,
2013-01-16 00:27:00,17.9,13.4,29.78,South,171,1.0,9.0,82,0.00,,---,0.00,VWS V14.01,2013-01-16 06:27:00,
2013-01-16 00:32:00,17.9,13.4,29.77,South,176,3.0,3.0,82,0.00,,---,0.00,VWS V14.01,2013-01-16 06:32:00,
2013-01-16 00:37:00,17.7,13.1,29.77,SSE,151,3.0,3.0,82,0.00,,---,0.00,VWS V14.01,2013-01-16 06:37:00,
2013-01-16 00:42:00,17.5,12.9,29.77,SSE,150,1.0,5.0,82,0.00,,---,0.00,VWS V14.01,2013-01-16 06:42:00,
2013-01-16 00:47:00,17.4,12.9,29.77,South,174,2.0,7.0,82,0.00,,---,0.00,VWS V14.01,2013-01-16 06:47:00,
2013-01-16 00:52:00,17.3,12.8,29.77,South,173,0.0,7.0,82,0.00,,---,0.00,VWS V14.01,2013-01-16 06:52:00,
2013-01-16 00:57:00,17.2,12.7,29.77,SSE,153,2.0,7.0,82,0.00,,---,0.00,VWS V14.01,2013-01-16 06:57:00,
2013-01-16 01:02:00,17.2,12.7,29.76,South,178,1.0,10.0,82,0.00,,---,0.00,VWS V14.01,2013-01-16 07:02:00,
2013-01-16 01:07:00,17.3,12.8,29.76,South,169,4.0,10.0,82,0.00,,---,0.00,VWS V14.01,2013-01-16 07:07:00,
2013-01-16 01:12:00,17.7,12.9,29.76,SE,142,5.0,12.0,81,0.00,,---,0.00,VWS V14.01,2013-01-16 07:12:00,
2013-01-16 01:17:00,17.9,13.1,29.75,South,191,3.0,12.0,81,0.00,,---,0.00,VWS V14.01,2013-01-16 07:17:00,
2013-01-16 01:22:00,18.0,12.9,29.75,South,173,3.0,12.0,80,0.00,,---,0.00,VWS V14.01,2013-01-16 07:22:00,
2013-01-16 01:27:00,18.3,13.2,29.75,South,176,4.0,13.0,80,0.00,,---,0.00,VWS V14.01,2013-01-16 07:27:00,
2013-01-16 01:32:00,18.5,13.1,29.74,South,184,6.0,12.0,79,0.00,,---,0.00,VWS V14.01,2013-01-16 07:32:00,
2013-01-16 01:37:00,18.7,13.3,29.74,ESE,116,5.0,13.0,79,0.00,,---,0.00,VWS V14.01,2013-01-16 07:37:00,
2013-01-16 01:42:00,18.8,13.1,29.74,SSE,150,7.0,13.0,78,0.00,,---,0.00,VWS V14.01,2013-01-16 07:42:00,
2013-01-16 01:47:00,18.9,13.2,29.74,South,187,4.0,13.0,78,0.00,,---,0.00,VWS V14.01,2013-01-16 07:47:00,
2013-01-16 01:52:00,19.0,13.3,29.74,SSE,167,4.0,13.0,78,0.00,,---,0.00,VWS V14.01,2013-01-16 07:52:00,
2013-01-16 01:57:00,19.0,13.3,29.74,South,172,5.0,15.0,78,0.00,,---,0.00,VWS V14.01,2013-01-16 07:57:00,
2013-01-16 02:02:00,19.1,13.4,29.73,SSE,167,3.0,7.0,78,0.00,,---,0.00,VWS V14.01,2013-01-16 08:02:00,
2013-01-16 02:07:00,19.1,13.4,29.72,South,182,2.0,7.0,78,0.00,,---,0.00,VWS V14.01,2013-01-16 08:07:00,
2013-01-16 02:12:00,19.1,13.4,29.72,SSW,192,4.0,7.0,78,0.00,,---,0.00,VWS V14.01,2013-01-16 08:12:00,
2013-01-16 02:17:00,19.1,13.4,29.72,South,169,3.0,13.0,78,0.00,,---,0.00,VWS V14.01,2013-01-16 08:17:00,
2013-01-16 02:22:00,19.1,13.4,29.71,South,173,5.0,13.0,78,0.00,,---,0.00,VWS V14.01,2013-01-16 08:22:00,
2013-01-16 02:27:00,19.3,13.6,29.70,SSW,196,4.0,13.0,78,0.00,,---,0.00,VWS V14.01,2013-01-16 08:27:00,
2013-01-16 02:32:00,19.4,13.7,29.70,South,176,10.0,15.0,78,0.00,,---,0.00,VWS V14.01,2013-01-16 08:32:00,
2013-01-16 02:37:00,19.6,13.6,29.70,SE,140,7.0,15.0,77,0.00,,---,0.00,VWS V14.01,2013-01-16 08:37:00,
2013-01-16 02:42:00,19.7,13.4,29.70,South,173,3.0,17.0,76,0.00,,---,0.00,VWS V14.01,2013-01-16 08:42:00,
2013-01-16 02:47:00,19.7,13.4,29.69,SSE,160,4.0,17.0,76,0.00,,---,0.00,VWS V14.01,2013-01-16 08:47:00,
2013-01-16 02:52:00,19.7,13.4,29.69,East,94,3.0,17.0,76,0.00,,---,0.00,VWS V14.01,2013-01-16 08:52:00,
2013-01-16 02:57:00,19.8,13.5,29.69,SSE,151,7.0,17.0,76,0.00,,---,0.00,VWS V14.01,2013-01-16 08:57:00,
2013-01-16 03:02:00,19.8,13.5,29.69,South,178,5.0,10.0,76,0.00,,---,0.00,VWS V14.01,2013-01-16 09:02:00,
2013-01-16 03:07:00,19.9,13.6,29.68,SE,137,6.0,14.0,76,0.00,,---,0.00,VWS V14.01,2013-01-16 09:07:00,
2013-01-16 03:12:00,20.0,13.4,29.68,SSW,210,9.0,14.0,75,0.00,,---,0.00,VWS V14.01,2013-01-16 09:12:00,
2013-01-16 03:17:00,20.2,13.6,29.67,South,181,11.0,14.0,75,0.00,,---,0.00,VWS V14.01,2013-01-16 09:17:00,
2013-01-16 03:22:00,20.2,13.6,29.67,SSE,151,5.0,14.0,75,0.00,,---,0.00,VWS V14.01,2013-01-16 09:22:00,
2013-01-16 03:27:00,20.2,13.6,29.66,South,175,2.0,14.0,75,0.00,,---,0.00,VWS V14.01,2013-01-16 09:27:00,
2013-01-16 03:32:00,20.1,13.5,29.66,SE,138,3.0,7.0,75,0.00,,---,0.00,VWS V14.01,2013-01-16 09:32:00,
2013-01-16 03:37:00,20.1,13.5,29.65,SSE,159,2.0,15.0,75,0.00,,---,0.00,VWS V14.01,2013-01-16 09:37:00,
2013-01-16 03:42:00,20.2,13.6,29.64,SW,215,3.0,15.0,75,0.00,,---,0.00,VWS V14.01,2013-01-16 09:42:00,
2013-01-16 03:47:00,20.1,13.5,29.63,SSE,152,6.0,15.0,75,0.00,,---,0.00,VWS V14.01,2013-01-16 09:47:00,
2013-01-16 03:52:00,20.1,13.8,29.63,South,169,4.0,15.0,76,0.00,,---,0.00,VWS V14.01,2013-01-16 09:52:00,
2013-01-16 03:57:00,20.1,13.8,29.63,SSW,193,10.0,15.0,76,0.00,,---,0.00,VWS V14.01,2013-01-16 09:57:00,
2013-01-16 04:02:00,20.1,13.5,29.63,South,173,4.0,11.0,75,0.00,,---,0.00,VWS V14.01,2013-01-16 10:02:00,
2013-01-16 04:07:00,20.1,13.8,29.63,SSE,161,5.0,13.0,76,0.00,,---,0.00,VWS V14.01,2013-01-16 10:07:00,
2013-01-16 04:12:00,20.0,13.7,29.63,SSE,157,10.0,13.0,76,0.00,,---,0.00,VWS V14.01,2013-01-16 10:12:00,
2013-01-16 04:17:00,20.1,13.5,29.63,SSW,196,16.0,16.0,75,0.00,,---,0.00,VWS V14.01,2013-01-16 10:17:00,
2013-01-16 04:22:00,20.3,14.0,29.62,SSE,161,9.0,16.0,76,0.00,,---,0.00,VWS V14.01,2013-01-16 10:22:00,
2013-01-16 04:27:00,20.3,13.7,29.62,SSE,150,3.0,16.0,75,0.00,,---,0.00,VWS V14.01,2013-01-16 10:27:00,
2013-01-16 04:32:00,20.4,14.1,29.61,SSE,164,7.0,9.0,76,0.00,,---,0.00,VWS V14.01,2013-01-16 10:32:00,
2013-01-16 04:37:00,20.5,14.1,29.60,South,175,2.0,14.0,76,0.00,,---,0.00,VWS V14.01,2013-01-16 10:37:00,
2013-01-16 04:42:00,20.6,14.2,29.59,SSE,161,5.0,14.0,76,0.00,,---,0.00,VWS V14.01,2013-01-16 10:42:00,
2013-01-16 04:47:00,20.7,14.4,29.59,South,183,2.0,14.0,76,0.00,,---,0.00,VWS V14.01,2013-01-16 10:47:00,
2013-01-16 04:52:00,20.8,14.4,29.58,SSE,150,4.0,14.0,76,0.00,,---,0.00,VWS V14.01,2013-01-16 10:52:00,
2013-01-16 04:57:00,20.9,14.2,29.58,South,175,5.0,14.0,75,0.00,,---,0.00,VWS V14.01,2013-01-16 10:57:00,
2013-01-16 05:02:00,21.0,14.3,29.58,SSE,163,3.0,13.0,75,0.00,,---,0.00,VWS V14.01,2013-01-16 11:02:00,
2013-01-16 05:07:00,21.1,14.1,29.57,South,171,6.0,17.0,74,0.00,,---,0.00,VWS V14.01,2013-01-16 11:07:00,
2013-01-16 05:12:00,21.2,14.5,29.57,South,178,2.0,17.0,75,0.00,,---,0.00,VWS V14.01,2013-01-16 11:12:00,
2013-01-16 05:17:00,21.4,14.4,29.57,SSW,193,14.0,20.0,74,0.00,,---,0.00,VWS V14.01,2013-01-16 11:17:00,
2013-01-16 05:22:00,21.5,14.8,29.57,SE,144,9.0,20.0,75,0.00,,---,0.00,VWS V14.01,2013-01-16 11:22:00,
2013-01-16 05:27:00,21.6,14.6,29.57,SSE,154,2.0,20.0,74,0.00,,---,0.00,VWS V14.01,2013-01-16 11:27:00,
2013-01-16 05:32:00,21.7,14.7,29.56,SE,145,4.0,15.0,74,0.00,,---,0.00,VWS V14.01,2013-01-16 11:32:00,
2013-01-16 05:37:00,21.8,14.8,29.56,South,180,18.0,18.0,74,0.00,,---,0.00,VWS V14.01,2013-01-16 11:37:00,
2013-01-16 05:42:00,22.0,15.0,29.56,SE,137,7.0,18.0,74,0.00,,---,0.00,VWS V14.01,2013-01-16 11:42:00,
2013-01-16 05:47:00,22.1,15.1,29.55,SSE,160,15.0,20.0,74,0.00,,---,0.00,VWS V14.01,2013-01-16 11:47:00,
2013-01-16 05:52:00,22.2,15.2,29.55,SSW,195,9.0,20.0,74,0.00,,---,0.00,VWS V14.01,2013-01-16 11:52:00,
2013-01-16 05:57:00,22.2,15.2,29.55,SSE,152,9.0,20.0,74,0.00,,---,0.00,VWS V14.01,2013-01-16 11:57:00,
2013-01-16 06:02:00,22.4,15.7,29.55,SSE,167,14.0,14.0,75,0.00,,---,0.00,VWS V14.01,2013-01-16 12:02:00,
2013-01-16 06:07:00,22.4,15.7,29.55,SSE,167,3.0,21.0,75,0.00,,---,0.00,VWS V14.01,2013-01-16 12:07:00,
2013-01-16 06:12:00,22.4,15.7,29.55,South,175,5.0,21.0,75,0.00,,---,0.00,VWS V14.01,2013-01-16 12:12:00,
2013-01-16 06:17:00,22.4,16.0,29.54,ESE,120,2.0,21.0,76,0.00,,---,0.00,VWS V14.01,2013-01-16 12:17:00,
2013-01-16 06:22:00,22.4,16.0,29.54,SSE,162,5.0,21.0,76,0.00,,---,0.00,VWS V14.01,2013-01-16 12:22:00,
2013-01-16 06:27:00,22.5,16.4,29.54,SSW,207,13.0,21.0,77,0.00,,---,0.00,VWS V14.01,2013-01-16 12:27:00,
2013-01-16 06:32:00,22.6,16.5,29.54,South,173,6.0,11.0,77,0.00,,---,0.00,VWS V14.01,2013-01-16 12:32:00,
2013-01-16 06:37:00,22.6,16.5,29.55,ESE,119,4.0,15.0,77,0.00,,---,0.00,VWS V14.01,2013-01-16 12:37:00,
2013-01-16 06:42:00,22.6,16.5,29.55,South,174,5.0,19.0,77,0.00,,---,0.00,VWS V14.01,2013-01-16 12:42:00,
2013-01-16 06:47:00,22.7,16.6,29.55,South,178,10.0,19.0,77,0.00,,---,0.00,VWS V14.01,2013-01-16 12:47:00,
2013-01-16 06:52:00,22.6,17.1,29.55,SE,138,11.0,19.0,79,0.00,,---,0.00,VWS V14.01,2013-01-16 12:52:00,
2013-01-16 06:57:00,22.6,17.4,29.55,SSW,201,5.0,22.0,80,0.00,,---,0.00,VWS V14.01,2013-01-16 12:57:00,
2013-01-16 07:02:00,22.5,17.6,29.55,SW,219,9.0,22.0,81,0.00,,---,0.00,VWS V14.01,2013-01-16 13:02:00,
2013-01-16 07:07:00,22.5,17.9,29.55,SSE,165,7.0,22.0,82,0.00,,---,0.00,VWS V14.01,2013-01-16 13:07:00,
2013-01-16 07:12:00,22.4,18.0,29.55,South,182,5.0,22.0,83,0.00,,---,0.00,VWS V14.01,2013-01-16 13:12:00,
2013-01-16 07:17:00,22.3,18.5,29.55,SSW,197,12.0,22.0,85,0.00,,---,0.00,VWS V14.01,2013-01-16 13:17:00,
2013-01-16 07:22:00,22.2,18.7,29.55,SSW,207,10.0,22.0,86,0.00,,---,0.00,VWS V14.01,2013-01-16 13:22:00,
2013-01-16 07:27:00,22.3,18.8,29.55,South,190,4.0,22.0,86,0.00,,---,0.00,VWS V14.01,2013-01-16 13:27:00,
2013-01-16 07:32:00,22.3,18.8,29.55,SSW,201,15.0,15.0,86,0.00,,---,0.00,VWS V14.01,2013-01-16 13:32:00,
2013-01-16 07:37:00,22.5,19.0,29.55,SSW,193,11.0,20.0,86,0.00,,---,0.00,VWS V14.01,2013-01-16 13:37:00,
2013-01-16 07:42:00,22.5,19.0,29.55,South,184,9.0,21.0,86,0.00,,---,0.00,VWS V14.01,2013-01-16 13:42:00,
2013-01-16 07:47:00,22.5,19.2,29.55,SSW,199,9.0,24.0,87,0.00,,---,0.00,VWS V14.01,2013-01-16 13:47:00,
2013-01-16 07:52:00,22.5,19.2,29.55,SW,219,20.0,24.0,87,0.00,,---,0.00,VWS V14.01,2013-01-16 13:52:00,
2013-01-16 07:57:00,22.5,19.5,29.55,SSE,168,4.0,24.0,88,0.00,,---,0.00,VWS V14.01,2013-01-16 13:57:00,
2013-01-16 08:02:00,22.5,19.5,29.55,SSE,167,11.0,13.0,88,0.00,,---,0.00,VWS V14.01,2013-01-16 14:02:00,
2013-01-16 08:07:00,22.5,19.8,29.55,South,183,5.0,17.0,89,0.00,,---,0.00,VWS V14.01,2013-01-16 14:07:00,
2013-01-16 08:12:00,22.6,19.9,29.55,SW,214,10.0,17.0,89,0.00,,---,0.00,VWS V14.01,2013-01-16 14:12:00,
2013-01-16 08:17:00,22.6,19.9,29.55,SSW,198,7.0,18.0,89,0.00,,---,0.00,VWS V14.01,2013-01-16 14:17:00,
2013-01-16 08:22:00,22.7,20.0,29.55,South,171,10.0,22.0,89,0.00,,---,0.00,VWS V14.01,2013-01-16 14:22:00,
2013-01-16 08:27:00,22.8,20.0,29.55,WNW,294,6.0,22.0,89,0.00,,---,0.00,VWS V14.01,2013-01-16 14:27:00,
2013-01-16 08:32:00,22.9,20.1,29.55,SW,224,8.0,19.0,89,0.00,,---,0.00,VWS V14.01,2013-01-16 14:32:00,
2013-01-16 08:37:00,23.0,20.2,29.56,South,187,10.0,19.0,89,0.00,,---,0.00,VWS V14.01,2013-01-16 14:37:00,
2013-01-16 08:42:00,23.1,20.4,29.56,SW,215,7.0,22.0,89,0.00,,---,0.00,VWS V14.01,2013-01-16 14:42:00,
2013-01-16 08:47:00,23.3,20.5,29.56,SSE,156,9.0,22.0,89,0.00,,---,0.00,VWS V14.01,2013-01-16 14:47:00,
2013-01-16 08:52:00,23.3,20.5,29.57,SSW,194,10.0,22.0,89,0.00,,---,0.00,VWS V14.01,2013-01-16 14:52:00,
2013-01-16 08:57:00,23.4,20.6,29.56,SSW,193,6.0,22.0,89,0.00,,---,0.00,VWS V14.01,2013-01-16 14:57:00,
2013-01-16 09:02:00,23.5,20.7,29.56,SSE,153,13.0,15.0,89,0.00,,---,0.00,VWS V14.01,2013-01-16 15:02:00,
2013-01-16 09:07:00,23.5,20.7,29.56,SSE,161,5.0,15.0,89,0.00,,---,0.00,VWS V14.01,2013-01-16 15:07:00,
2013-01-16 09:12:00,23.6,20.8,29.57,SSW,196,11.0,18.0,89,0.00,,---,0.00,VWS V14.01,2013-01-16 15:12:00,
2013-01-16 09:17:00,23.7,20.9,29.56,South,180,10.0,22.0,89,0.00,,---,0.00,VWS V14.01,2013-01-16 15:17:00,
2013-01-16 09:22:00,23.8,21.0,29.56,SSW,192,6.0,22.0,89,0.00,,---,0.00,VWS V14.01,2013-01-16 15:22:00,
2013-01-16 09:27:00,23.9,21.1,29.56,SSE,166,3.0,22.0,89,0.00,,---,0.00,VWS V14.01,2013-01-16 15:27:00,
2013-01-16 09:32:00,24.0,21.2,29.56,South,186,6.0,19.0,89,0.00,,---,0.00,VWS V14.01,2013-01-16 15:32:00,
2013-01-16 09:37:00,24.1,21.3,29.56,SSE,164,11.0,19.0,89,0.00,,---,0.00,VWS V14.01,2013-01-16 15:37:00,
2013-01-16 09:42:00,24.2,21.4,29.56,SSW,192,19.0,19.0,89,0.00,,---,0.00,VWS V14.01,2013-01-16 15:42:00,
2013-01-16 09:47:00,24.2,21.4,29.56,SSW,209,5.0,20.0,89,0.00,,---,0.00,VWS V14.01,2013-01-16 15:47:00,
2013-01-16 09:52:00,24.3,21.5,29.56,West,262,13.0,20.0,89,0.00,,---,0.00,VWS V14.01,2013-01-16 15:52:00,
2013-01-16 09:57:00,24.4,21.6,29.57,SSW,209,10.0,20.0,89,0.00,,---,0.00,VWS V14.01,2013-01-16 15:57:00,
2013-01-16 10:02:00,24.5,21.7,29.57,South,175,4.0,11.0,89,0.00,,---,0.00,VWS V14.01,2013-01-16 16:02:00,
2013-01-16 10:07:00,24.6,21.8,29.57,South,185,4.0,16.0,89,0.00,,---,0.00,VWS V14.01,2013-01-16 16:07:00,
2013-01-16 10:12:00,24.7,21.9,29.57,SSE,159,10.0,16.0,89,0.00,,---,0.00,VWS V14.01,2013-01-16 16:12:00,
2013-01-16 10:17:00,24.7,22.2,29.57,SSW,202,7.0,16.0,90,0.00,,---,0.00,VWS V14.01,2013-01-16 16:17:00,
2013-01-16 10:22:00,24.8,22.3,29.57,SSW,200,5.0,17.0,90,0.00,,---,0.00,VWS V14.01,2013-01-16 16:22:00,
2013-01-16 10:27:00,24.9,22.4,29.57,SSW,198,5.0,17.0,90,0.00,,---,0.00,VWS V14.01,2013-01-16 16:27:00,
2013-01-16 10:32:00,25.0,22.5,29.57,SSW,196,13.0,13.0,90,0.00,,---,0.00,VWS V14.01,2013-01-16 16:32:00,
2013-01-16 10:37:00,25.1,22.6,29.57,SSW,211,12.0,13.0,90,0.00,,---,0.00,VWS V14.01,2013-01-16 16:37:00,
2013-01-16 10:42:00,25.2,22.7,29.57,SE,126,5.0,13.0,90,0.00,,---,0.00,VWS V14.01,2013-01-16 16:42:00,
2013-01-16 10:47:00,25.3,22.8,29.57,SW,216,9.0,13.0,90,0.00,,---,0.00,VWS V14.01,2013-01-16 16:47:00,
2013-01-16 10:52:00,25.4,22.9,29.57,SSW,201,10.0,14.0,90,0.00,,---,0.00,VWS V14.01,2013-01-16 16:52:00,
2013-01-16 10:57:00,25.5,23.0,29.57,South,187,3.0,14.0,90,0.00,,---,0.00,VWS V14.01,2013-01-16 16:57:00,
2013-01-16 11:02:00,25.6,23.1,29.57,SW,227,10.0,15.0,90,0.00,,---,0.00,VWS V14.01,2013-01-16 17:02:00,
2013-01-16 11:07:00,25.7,23.2,29.57,South,178,5.0,15.0,90,0.00,,---,0.00,VWS V14.01,2013-01-16 17:07:00,
2013-01-16 11:12:00,25.8,23.3,29.56,SSW,195,5.0,15.0,90,0.00,,---,0.00,VWS V14.01,2013-01-16 17:12:00,
2013-01-16 11:17:00,26.0,23.5,29.57,South,180,4.0,15.0,90,0.00,,---,0.00,VWS V14.01,2013-01-16 17:17:00,
2013-01-16 11:22:00,26.1,23.6,29.56,SSW,199,2.0,15.0,90,0.00,,---,0.00,VWS V14.01,2013-01-16 17:22:00,
2013-01-16 11:27:00,26.2,23.7,29.56,South,179,3.0,15.0,90,0.00,,---,0.00,VWS V14.01,2013-01-16 17:27:00,
2013-01-16 11:32:00,26.4,23.9,29.56,SW,216,4.0,11.0,90,0.00,,---,0.00,VWS V14.01,2013-01-16 17:32:00,
2013-01-16 11:37:00,26.7,24.2,29.56,SSW,207,6.0,11.0,90,0.00,,---,0.00,VWS V14.01,2013-01-16 17:37:00,
2013-01-16 11:42:00,27.0,24.5,29.56,SW,219,6.0,13.0,90,0.00,,---,0.00,VWS V14.01,2013-01-16 17:42:00,
2013-01-16 11:47:00,27.3,24.8,29.56,NE,52,2.0,13.0,90,0.00,,---,0.00,VWS V14.01,2013-01-16 17:47:00,
2013-01-16 11:52:00,27.6,25.1,29.56,SSW,195,10.0,15.0,90,0.00,,---,0.00,VWS V14.01,2013-01-16 17:52:00,
2013-01-16 11:57:00,27.8,25.0,29.56,WSW,238,9.0,16.0,89,0.00,,---,0.00,VWS V14.01,2013-01-16 17:57:00,
2013-01-16 12:02:00,27.9,25.1,29.56,SSE,168,5.0,5.0,89,0.00,,---,0.00,VWS V14.01,2013-01-16 18:02:00,
2013-01-16 12:07:00,28.2,25.4,29.56,SW,221,9.0,11.0,89,0.00,,---,0.00,VWS V14.01,2013-01-16 18:07:00,
2013-01-16 12:12:00,28.3,25.5,29.56,SSW,207,10.0,16.0,89,0.00,,---,0.00,VWS V14.01,2013-01-16 18:12:00,
2013-01-16 12:17:00,28.4,25.6,29.56,WSW,251,7.0,16.0,89,0.00,,---,0.00,VWS V14.01,2013-01-16 18:17:00,
2013-01-16 12:22:00,28.5,25.7,29.56,SW,216,7.0,16.0,89,0.00,,---,0.00,VWS V14.01,2013-01-16 18:22:00,
2013-01-16 12:27:00,28.7,25.9,29.56,SSW,207,5.0,16.0,89,0.00,,---,0.00,VWS V14.01,2013-01-16 18:27:00,
2013-01-16 12:32:00,28.8,26.0,29.56,SW,217,15.0,15.0,89,0.00,,---,0.00,VWS V14.01,2013-01-16 18:32:00,
2013-01-16 12:37:00,28.9,26.1,29.57,SW,215,6.0,15.0,89,0.00,,---,0.00,VWS V14.01,2013-01-16 18:37:00,
2013-01-16 12:42:00,29.1,26.3,29.57,SW,229,4.0,16.0,89,0.00,,---,0.00,VWS V14.01,2013-01-16 18:42:00,
2013-01-16 12:47:00,29.3,26.5,29.57,South,169,4.0,16.0,89,0.00,,---,0.00,VWS V14.01,2013-01-16 18:47:00,
2013-01-16 12:52:00,29.4,26.6,29.57,SW,229,3.0,16.0,89,0.00,,---,0.00,VWS V14.01,2013-01-16 18:52:00,
2013-01-16 12:57:00,29.6,26.8,29.57,SSW,195,4.0,16.0,89,0.00,,---,0.00,VWS V14.01,2013-01-16 18:57:00,
2013-01-16 13:02:00,29.7,26.9,29.57,SSW,212,9.0,13.0,89,0.00,,---,0.00,VWS V14.01,2013-01-16 19:02:00,
2013-01-16 13:07:00,29.7,26.9,29.57,WSW,258,6.0,13.0,89,0.00,,---,0.00,VWS V14.01,2013-01-16 19:07:00,
2013-01-16 13:12:00,29.9,27.1,29.58,SSW,205,10.0,13.0,89,0.00,,---,0.00,VWS V14.01,2013-01-16 19:12:00,
2013-01-16 13:17:00,30.1,27.3,29.58,SSW,200,8.0,18.0,89,0.00,,---,0.00,VWS V14.01,2013-01-16 19:17:00,
2013-01-16 13:22:00,30.2,27.4,29.58,WSW,239,4.0,18.0,89,0.00,,---,0.00,VWS V14.01,2013-01-16 19:22:00,
2013-01-16 13:27:00,30.3,27.5,29.58,SW,229,3.0,18.0,89,0.00,,---,0.00,VWS V14.01,2013-01-16 19:27:00,
2013-01-16 13:32:00,30.3,27.5,29.58,West,269,4.0,12.0,89,0.00,,---,0.00,VWS V14.01,2013-01-16 19:32:00,
2013-01-16 13:37:00,30.4,27.5,29.58,SW,234,12.0,13.0,89,0.00,,---,0.00,VWS V14.01,2013-01-16 19:37:00,
2013-01-16 13:42:00,30.5,27.6,29.58,SW,232,2.0,14.0,89,0.00,,---,0.00,VWS V14.01,2013-01-16 19:42:00,
2013-01-16 13:47:00,30.6,27.8,29.58,WSW,248,6.0,14.0,89,0.00,,---,0.00,VWS V14.01,2013-01-16 19:47:00,
2013-01-16 13:52:00,30.8,28.0,29.58,WSW,240,6.0,14.0,89,0.00,,---,0.00,VWS V14.01,2013-01-16 19:52:00,
2013-01-16 13:57:00,30.9,28.0,29.58,WSW,239,4.0,14.0,89,0.00,,---,0.00,VWS V14.01,2013-01-16 19:57:00,
2013-01-16 14:02:00,31.0,27.9,29.59,SW,233,6.0,10.0,88,0.00,,---,0.00,VWS V14.01,2013-01-16 20:02:00,
2013-01-16 14:07:00,31.2,28.1,29.59,SW,221,5.0,10.0,88,0.00,,---,0.00,VWS V14.01,2013-01-16 20:07:00,
2013-01-16 14:12:00,31.4,28.3,29.59,West,263,10.0,11.0,88,0.00,,---,0.00,VWS V14.01,2013-01-16 20:12:00,
2013-01-16 14:17:00,31.6,28.5,29.60,WSW,242,11.0,12.0,88,0.00,,---,0.00,VWS V14.01,2013-01-16 20:17:00,
2013-01-16 14:22:00,31.6,28.5,29.60,WSW,250,2.0,12.0,88,0.00,,---,0.00,VWS V14.01,2013-01-16 20:22:00,
2013-01-16 14:27:00,31.7,28.6,29.60,WSW,243,10.0,12.0,88,0.00,,---,0.00,VWS V14.01,2013-01-16 20:27:00,
2013-01-16 14:32:00,31.7,28.6,29.61,WNW,288,3.0,10.0,88,0.00,,---,0.00,VWS V14.01,2013-01-16 20:32:00,
2013-01-16 14:37:00,31.7,28.6,29.61,West,263,3.0,14.0,88,0.00,,---,0.00,VWS V14.01,2013-01-16 20:37:00,
2013-01-16 14:42:00,31.7,28.6,29.61,WSW,258,2.0,14.0,88,0.00,,---,0.00,VWS V14.01,2013-01-16 20:42:00,
2013-01-16 14:47:00,31.8,28.7,29.61,WNW,284,4.0,14.0,88,0.00,,---,0.00,VWS V14.01,2013-01-16 20:47:00,
2013-01-16 14:52:00,31.8,28.7,29.62,West,279,3.0,14.0,88,0.00,,---,0.00,VWS V14.01,2013-01-16 20:52:00,
2013-01-16 14:57:00,31.7,28.6,29.62,WNW,289,6.0,14.0,88,0.00,,---,0.00,VWS V14.01,2013-01-16 20:57:00,
2013-01-16 15:02:00,31.7,28.6,29.62,WNW,292,9.0,9.0,88,0.00,,---,0.00,VWS V14.01,2013-01-16 21:02:00,
2013-01-16 15:07:00,31.8,28.7,29.62,WSW,253,5.0,11.0,88,0.00,,---,0.00,VWS V14.01,2013-01-16 21:07:00,
2013-01-16 15:12:00,31.8,28.1,29.62,WNW,289,15.0,16.0,86,0.00,,---,0.00,VWS V14.01,2013-01-16 21:12:00,
2013-01-16 15:17:00,31.9,28.2,29.63,WNW,292,3.0,16.0,86,0.00,,---,0.00,VWS V14.01,2013-01-16 21:17:00,
2013-01-16 15:22:00,32.0,28.3,29.64,West,277,12.0,16.0,86,0.00,,---,0.00,VWS V14.01,2013-01-16 21:22:00,
2013-01-16 15:27:00,31.9,28.2,29.64,West,273,7.0,16.0,86,0.00,,---,0.00,VWS V14.01,2013-01-16 21:27:00,
2013-01-16 15:32:00,31.6,28.2,29.64,West,273,3.0,10.0,87,0.00,,---,0.00,VWS V14.01,2013-01-16 21:32:00,
2013-01-16 15:37:00,31.3,28.2,29.65,West,269,6.0,12.0,88,0.00,,---,0.00,VWS V14.01,2013-01-16 21:37:00,
2013-01-16 15:42:00,31.1,28.0,29.66,WNW,292,3.0,12.0,88,0.00,,---,0.00,VWS V14.01,2013-01-16 21:42:00,
2013-01-16 15:47:00,31.2,27.8,29.66,WNW,302,2.0,12.0,87,0.00,,---,0.00,VWS V14.01,2013-01-16 21:47:00,
2013-01-16 15:52:00,31.2,27.8,29.66,WNW,289,4.0,12.0,87,0.00,,---,0.00,VWS V14.01,2013-01-16 21:52:00,
2013-01-16 15:57:00,31.2,27.8,29.66,WNW,297,9.0,13.0,87,0.00,,---,0.00,VWS V14.01,2013-01-16 21:57:00,
2013-01-16 16:02:00,31.1,27.4,29.66,West,259,11.0,12.0,86,0.00,,---,0.00,VWS V14.01,2013-01-16 22:02:00,
2013-01-16 16:07:00,31.1,27.4,29.66,WSW,257,8.0,12.0,86,0.00,,---,0.00,VWS V14.01,2013-01-16 22:07:00,
2013-01-16 16:12:00,31.0,27.0,29.67,NW,307,6.0,12.0,85,0.00,,---,0.00,VWS V14.01,2013-01-16 22:12:00,
2013-01-16 16:17:00,30.9,26.9,29.67,WSW,244,11.0,13.0,85,0.00,,---,0.00,VWS V14.01,2013-01-16 22:17:00,
2013-01-16 16:22:00,30.8,26.8,29.67,WNW,288,5.0,13.0,85,0.00,,---,0.00,VWS V14.01,2013-01-16 22:22:00,
2013-01-16 16:27:00,30.7,26.7,29.68,WNW,291,6.0,13.0,85,0.00,,---,0.00,VWS V14.01,2013-01-16 22:27:00,
2013-01-16 16:32:00,30.6,26.9,29.68,NW,309,7.0,11.0,86,0.00,,---,0.00,VWS V14.01,2013-01-16 22:32:00,
2013-01-16 16:37:00,30.5,26.8,29.69,West,265,1.0,15.0,86,0.00,,---,0.00,VWS V14.01,2013-01-16 22:37:00,
2013-01-16 16:42:00,30.5,26.8,29.70,WNW,292,4.0,19.0,86,0.00,,---,0.00,VWS V14.01,2013-01-16 22:42:00,
2013-01-16 16:47:00,30.3,26.6,29.70,SW,225,11.0,19.0,86,0.00,,---,0.00,VWS V14.01,2013-01-16 22:47:00,
2013-01-16 16:52:00,30.3,26.6,29.70,West,266,5.0,19.0,86,0.00,,---,0.00,VWS V14.01,2013-01-16 22:52:00,
2013-01-16 16:57:00,30.2,28.2,29.71,NW,304,5.0,19.0,92,0.00,,---,0.00,VWS V14.01,2013-01-16 22:57:00,
2013-01-16 17:02:00,30.1,26.4,29.72,WNW,296,10.0,10.0,86,0.00,,---,0.00,VWS V14.01,2013-01-16 23:02:00,
2013-01-16 17:07:00,30.0,26.3,29.73,WSW,251,9.0,13.0,86,0.00,,---,0.00,VWS V14.01,2013-01-16 23:07:00,
2013-01-16 17:12:00,29.9,26.2,29.73,West,281,5.0,13.0,86,0.00,,---,0.00,VWS V14.01,2013-01-16 23:12:00,
2013-01-16 17:17:00,29.8,26.1,29.73,WNW,284,9.0,13.0,86,0.00,,---,0.00,VWS V14.01,2013-01-16 23:17:00,
2013-01-16 17:22:00,29.8,26.1,29.73,SW,235,4.0,14.0,86,0.00,,---,0.00,VWS V14.01,2013-01-16 23:22:00,
2013-01-16 17:27:00,29.7,26.0,29.74,WSW,246,3.0,14.0,86,0.00,,---,0.00,VWS V14.01,2013-01-16 23:27:00,
2013-01-16 17:32:00,29.6,25.9,29.74,West,263,8.0,11.0,86,0.00,,---,0.00,VWS V14.01,2013-01-16 23:32:00,
2013-01-16 17:37:00,29.5,25.8,29.75,WNW,296,5.0,14.0,86,0.00,,---,0.00,VWS V14.01,2013-01-16 23:37:00,
2013-01-16 17:42:00,29.4,25.5,29.75,WNW,287,4.0,14.0,85,0.00,,---,0.00,VWS V14.01,2013-01-16 23:42:00,
2013-01-16 17:47:00,29.3,24.5,29.75,WSW,249,6.0,14.0,82,0.00,,---,0.00,VWS V14.01,2013-01-16 23:47:00,
2013-01-16 17:52:00,29.3,24.2,29.76,West,273,4.0,14.0,81,0.00,,---,0.00,VWS V14.01,2013-01-16 23:52:00,
2013-01-16 17:57:00,29.3,23.9,29.76,SW,219,9.0,14.0,80,0.00,,---,0.00,VWS V14.01,2013-01-16 23:57:00,
2013-01-16 18:02:00,29.2,23.5,29.77,NW,304,6.0,6.0,79,0.00,,---,0.00,VWS V14.01,2013-01-17 00:02:00,
2013-01-16 18:07:00,29.0,22.7,29.78,WNW,294,11.0,13.0,77,0.00,,---,0.00,VWS V14.01,2013-01-17 00:07:00,
2013-01-16 18:12:00,28.9,22.0,29.78,West,265,4.0,13.0,75,0.00,,---,0.00,VWS V14.01,2013-01-17 00:12:00,
2013-01-16 18:17:00,28.8,21.6,29.78,WNW,286,5.0,16.0,74,0.00,,---,0.00,VWS V14.01,2013-01-17 00:17:00,
2013-01-16 18:22:00,28.6,21.4,29.79,West,275,5.0,16.0,74,0.00,,---,0.00,VWS V14.01,2013-01-17 00:22:00,
2013-01-16 18:27:00,28.5,21.0,29.79,West,269,6.0,16.0,73,0.00,,---,0.00,VWS V14.01,2013-01-17 00:27:00,
2013-01-16 18:32:00,28.3,20.4,29.80,West,279,3.0,13.0,72,0.00,,---,0.00,VWS V14.01,2013-01-17 00:32:00,
2013-01-16 18:37:00,28.2,20.4,29.80,WNW,288,6.0,15.0,72,0.00,,---,0.00,VWS V14.01,2013-01-17 00:37:00,
2013-01-16 18:42:00,28.1,19.9,29.80,WNW,284,6.0,16.0,71,0.00,,---,0.00,VWS V14.01,2013-01-17 00:42:00,
2013-01-16 18:47:00,27.9,19.7,29.80,NW,310,7.0,16.0,71,0.00,,---,0.00,VWS V14.01,2013-01-17 00:47:00,
2013-01-16 18:52:00,27.8,18.6,29.80,WSW,246,2.0,18.0,68,0.00,,---,0.00,VWS V14.01,2013-01-17 00:52:00,
2013-01-16 18:57:00,27.6,18.1,29.81,West,267,7.0,18.0,67,0.00,,---,0.00,VWS V14.01,2013-01-17 00:57:00,
2013-01-16 19:02:00,27.5,18.3,29.81,NW,305,7.0,14.0,68,0.00,,---,0.00,VWS V14.01,2013-01-17 01:02:00,
2013-01-16 19:07:00,27.3,17.8,29.82,WNW,296,17.0,17.0,67,0.00,,---,0.00,VWS V14.01,2013-01-17 01:07:00,
2013-01-16 19:12:00,27.0,16.8,29.82,West,277,3.0,18.0,65,0.00,,---,0.00,VWS V14.01,2013-01-17 01:12:00,
2013-01-16 19:17:00,26.7,16.2,29.82,NW,313,9.0,18.0,64,0.00,,---,0.00,VWS V14.01,2013-01-17 01:17:00,
2013-01-16 19:22:00,26.5,15.6,29.82,West,273,8.0,18.0,63,0.00,,---,0.00,VWS V14.01,2013-01-17 01:22:00,
2013-01-16 19:27:00,26.3,14.3,29.83,NW,319,16.0,18.0,60,0.00,,---,0.00,VWS V14.01,2013-01-17 01:27:00,
2013-01-16 19:32:00,26.1,14.1,29.83,NW,304,4.0,13.0,60,0.00,,---,0.00,VWS V14.01,2013-01-17 01:32:00,
2013-01-16 19:37:00,25.8,13.5,29.83,WNW,297,6.0,13.0,59,0.00,,---,0.00,VWS V14.01,2013-01-17 01:37:00,
2013-01-16 19:42:00,25.6,12.9,29.84,NNW,339,5.0,15.0,58,0.00,,---,0.00,VWS V14.01,2013-01-17 01:42:00,
2013-01-16 19:47:00,25.5,12.4,29.84,WNW,297,5.0,15.0,57,0.00,,---,0.00,VWS V14.01,2013-01-17 01:47:00,
2013-01-16 19:52:00,25.3,11.8,29.84,NW,304,11.0,15.0,56,0.00,,---,0.00,VWS V14.01,2013-01-17 01:52:00,
2013-01-16 19:57:00,25.1,11.2,29.85,NW,305,9.0,15.0,55,0.00,,---,0.00,VWS V14.01,2013-01-17 01:57:00,
2013-01-16 20:02:00,24.9,11.0,29.86,WNW,290,8.0,10.0,55,0.00,,---,0.00,VWS V14.01,2013-01-17 02:02:00,
2013-01-16 20:07:00,24.6,11.2,29.86,WNW,284,9.0,14.0,56,0.00,,---,0.00,VWS V14.01,2013-01-17 02:07:00,
2013-01-16 20:12:00,24.3,10.5,29.87,NW,304,13.0,18.0,55,0.00,,---,0.00,VWS V14.01,2013-01-17 02:12:00,
2013-01-16 20:17:00,24.2,10.4,29.88,NW,312,5.0,18.0,55,0.00,,---,0.00,VWS V14.01,2013-01-17 02:17:00,
2013-01-16 20:22:00,24.0,9.8,29.89,NW,307,7.0,18.0,54,0.00,,---,0.00,VWS V14.01,2013-01-17 02:22:00,
2013-01-16 20:27:00,23.9,9.7,29.89,West,279,4.0,18.0,54,0.00,,---,0.00,VWS V14.01,2013-01-17 02:27:00,
2013-01-16 20:32:00,23.7,9.5,29.89,NW,319,5.0,15.0,54,0.00,,---,0.00,VWS V14.01,2013-01-17 02:32:00,
2013-01-16 20:37:00,23.5,9.7,29.89,NW,315,10.0,15.0,55,0.00,,---,0.00,VWS V14.01,2013-01-17 02:37:00,
2013-01-16 20:42:00,23.4,9.6,29.90,WNW,286,2.0,20.0,55,0.00,,---,0.00,VWS V14.01,2013-01-17 02:42:00,
2013-01-16 20:47:00,23.1,9.8,29.90,WNW,303,8.0,20.0,56,0.00,,---,0.00,VWS V14.01,2013-01-17 02:47:00,
2013-01-16 20:52:00,22.9,9.6,29.90,NW,306,11.0,20.0,56,0.00,,---,0.00,VWS V14.01,2013-01-17 02:52:00,
2013-01-16 20:57:00,22.7,9.0,29.90,WNW,298,11.0,20.0,55,0.00,,---,0.00,VWS V14.01,2013-01-17 02:57:00,
2013-01-16 21:02:00,22.5,8.8,29.90,WNW,298,6.0,15.0,55,0.00,,---,0.00,VWS V14.01,2013-01-17 03:02:00,
2013-01-16 21:07:00,22.3,8.6,29.90,WNW,294,7.0,15.0,55,0.00,,---,0.00,VWS V14.01,2013-01-17 03:07:00,
2013-01-16 21:12:00,22.1,8.4,29.90,West,265,6.0,15.0,55,0.00,,---,0.00,VWS V14.01,2013-01-17 03:12:00,
2013-01-16 21:17:00,21.8,8.5,29.90,WNW,297,1.0,15.0,56,0.00,,---,0.00,VWS V14.01,2013-01-17 03:17:00,
2013-01-16 21:22:00,21.6,8.3,29.90,NW,305,9.0,15.0,56,0.00,,---,0.00,VWS V14.01,2013-01-17 03:22:00,
2013-01-16 21:27:00,21.4,8.6,29.91,WNW,284,5.0,15.0,57,0.00,,---,0.00,VWS V14.01,2013-01-17 03:27:00,
2013-01-16 21:32:00,21.2,8.7,29.91,WNW,302,5.0,11.0,58,0.00,,---,0.00,VWS V14.01,2013-01-17 03:32:00,
2013-01-16 21:37:00,21.0,8.2,29.91,NW,305,5.0,12.0,57,0.00,,---,0.00,VWS V14.01,2013-01-17 03:37:00,
2013-01-16 21:42:00,20.8,8.0,29.92,West,280,3.0,18.0,57,0.00,,---,0.00,VWS V14.01,2013-01-17 03:42:00,
2013-01-16 21:47:00,20.6,7.4,29.92,NW,309,4.0,18.0,56,0.00,,---,0.00,VWS V14.01,2013-01-17 03:47:00,
2013-01-16 21:52:00,20.4,7.2,29.93,WNW,285,2.0,18.0,56,0.00,,---,0.00,VWS V14.01,2013-01-17 03:52:00,
2013-01-16 21:57:00,20.2,5.8,29.94,WNW,299,13.0,18.0,53,0.00,,---,0.00,VWS V14.01,2013-01-17 03:57:00,
2013-01-16 22:02:00,20.0,6.4,29.93,NW,306,5.0,12.0,55,0.00,,---,0.00,VWS V14.01,2013-01-17 04:02:00,
2013-01-16 22:07:00,19.7,6.2,29.93,WNW,294,2.0,12.0,55,0.00,,---,0.00,VWS V14.01,2013-01-17 04:07:00,
2013-01-16 22:12:00,19.7,5.8,29.93,West,275,3.0,13.0,54,0.00,,---,0.00,VWS V14.01,2013-01-17 04:12:00,
2013-01-16 22:17:00,19.4,5.5,29.93,West,263,4.0,13.0,54,0.00,,---,0.00,VWS V14.01,2013-01-17 04:17:00,
2013-01-16 22:22:00,19.2,5.7,29.94,West,275,3.0,13.0,55,0.00,,---,0.00,VWS V14.01,2013-01-17 04:22:00,
2013-01-16 22:27:00,19.0,5.9,29.95,WNW,282,5.0,13.0,56,0.00,,---,0.00,VWS V14.01,2013-01-17 04:27:00,
2013-01-16 22:32:00,18.8,5.7,29.95,NW,309,4.0,8.0,56,0.00,,---,0.00,VWS V14.01,2013-01-17 04:32:00,
2013-01-16 22:37:00,18.6,5.5,29.96,WNW,303,1.0,8.0,56,0.00,,---,0.00,VWS V14.01,2013-01-17 04:37:00,
2013-01-16 22:42:00,18.4,4.9,29.95,WSW,257,4.0,12.0,55,0.00,,---,0.00,VWS V14.01,2013-01-17 04:42:00,
2013-01-16 22:47:00,18.3,4.8,29.96,WNW,292,3.0,12.0,55,0.00,,---,0.00,VWS V14.01,2013-01-17 04:47:00,
2013-01-16 22:52:00,18.1,4.3,29.97,West,268,3.0,12.0,54,0.00,,---,0.00,VWS V14.01,2013-01-17 04:52:00,
2013-01-16 22:57:00,17.9,4.5,29.96,West,275,2.0,12.0,55,0.00,,---,0.00,VWS V14.01,2013-01-17 04:57:00,
2013-01-16 23:00:00,17.8,4.0,29.96,WNW,298,4.0,7.0,54,0.00,,---,0.00,VWS V14.01,2013-01-17 05:00:00,
2013-01-16 23:01:00,17.7,3.9,29.96,West,273,7.0,7.0,54,0.00,,---,0.00,VWS V14.01,2013-01-17 05:01:00,
2013-01-16 23:02:00,17.7,3.9,29.97,West,280,1.0,7.0,54,0.00,,---,0.00,VWS V14.01,2013-01-17 05:02:00,
2013-01-16 23:03:00,17.7,3.9,29.97,West,261,3.0,11.0,54,0.00,,---,0.00,VWS V14.01,2013-01-17 05:03:00,
2013-01-16 23:08:00,17.6,3.8,29.97,WNW,292,6.0,15.0,54,0.00,,---,0.00,VWS V14.01,2013-01-17 05:08:00,
2013-01-16 23:13:00,17.5,4.1,29.97,WNW,296,6.0,15.0,55,0.00,,---,0.00,VWS V14.01,2013-01-17 05:13:00,
2013-01-16 23:18:00,17.3,3.5,29.98,West,271,3.0,15.0,54,0.00,,---,0.00,VWS V14.01,2013-01-17 05:18:00,
2013-01-16 23:23:00,17.2,3.8,29.98,WNW,283,3.0,15.0,55,0.00,,---,0.00,VWS V14.01,2013-01-17 05:23:00,
2013-01-16 23:28:00,17.0,3.6,29.98,NW,305,2.0,15.0,55,0.00,,---,0.00,VWS V14.01,2013-01-17 05:28:00,
2013-01-16 23:33:00,16.8,3.5,29.98,WNW,285,3.0,6.0,55,0.00,,---,0.00,VWS V14.01,2013-01-17 05:33:00,
2013-01-16 23:38:00,16.7,3.3,29.98,West,269,4.0,9.0,55,0.00,,---,0.00,VWS V14.01,2013-01-17 05:38:00,
2013-01-16 23:43:00,16.6,4.0,29.98,WNW,288,1.0,9.0,57,0.00,,---,0.00,VWS V14.01,2013-01-17 05:43:00,
2013-01-16 23:48:00,16.3,3.4,29.99,WNW,291,2.0,9.0,56,0.00,,---,0.00,VWS V14.01,2013-01-17 05:48:00,
2013-01-16 23:53:00,16.1,3.2,29.99,WNW,296,3.0,9.0,56,0.00,,---,0.00,VWS V14.01,2013-01-17 05:53:00,
2013-01-16 23:58:00,15.9,3.4,29.99,NW,313,4.0,9.0,57,0.00,,---,0.00,VWS V14.01,2013-01-17 05:58:00,